Location: Gajan
(43.0218°N, 1.1244°E)
Time: 03:20:26
(UTC+00:00)

SL-16 R/B - Pass Details

Date: 22 April 2021
Orbit: 840 x 849 km, 71.0° (Epoch: 15 May)

Event Time Altitude Azimuth Distance (km) Brightness Sun altitude
Rises 21:16:05 0° 334° (NNW) 3,420 6.6 -23.8°
Reaches altitude 10° 21:18:32 10° 333° (NNW) 2,480 5.6 -24.1°
Maximum altitude 21:24:14 81° 248° (WSW) 862 2.1 -24.8°
Enters shadow 21:25:14 61° 175° (S) 953 2.1 -24.9°
